• In Österreich
  • Länderverzeichnis
  • Für 7 Tage
  • Wassertemperatur
  • Satellitenkarten
  • Wetterkarte
  • News
  • Widgets
  • user-avatar
    Anmelden

    Stündliche Wetter Ghanzi

    Heute, 17 Dezember, Sonntag

    Zeit Temperatur Niederschläge Wind Luftdruck Luftfeuchtigkeit
    00:00 +18°C° 0 mm 2 m/S 717 mmHg 20%
    01:00 +17°C° 0 mm 3 m/S 717 mmHg 21%
    02:00 +17°C° 0 mm 2 m/S 717 mmHg 23%
    03:00 +16°C° 0 mm 2 m/S 716 mmHg 24%
    04:00 +16°C° 0 mm 2 m/S 716 mmHg 25%
    05:00 +16°C° 0 mm 2 m/S 716 mmHg 25%
    06:00 +16°C° 0 mm 2 m/S 717 mmHg 25%
    07:00 +16°C° 0 mm 2 m/S 717 mmHg 26%
    08:00 +18°C° 0 mm 2 m/S 717 mmHg 23%
    09:00 +20°C° 0 mm 2 m/S 718 mmHg 20%
    10:00 +23°C° 0 mm 2 m/S 718 mmHg 18%
    11:00 +24°C° 0 mm 2 m/S 717 mmHg 16%
    12:00 +26°C° 0 mm 2 m/S 717 mmHg 14%
    13:00 +27°C° 0 mm 2 m/S 717 mmHg 12%
    14:00 +27°C° 0 mm 2 m/S 716 mmHg 12%
    15:00 +27°C° 0 mm 2 m/S 716 mmHg 12%
    16:00 +26°C° 0 mm 2 m/S 716 mmHg 12%
    17:00 +25°C° 0 mm 2 m/S 716 mmHg 13%
    18:00 +23°C° 0 mm 2 m/S 716 mmHg 15%
    19:00 +20°C° 0 mm 3 m/S 716 mmHg 16%
    20:00 +20°C° 0 mm 3 m/S 717 mmHg 17%
    21:00 +19°C° 0 mm 3 m/S 717 mmHg 18%
    22:00 +19°C° 0 mm 3 m/S 717 mmHg 18%
    23:00 +18°C° 0 mm 3 m/S 717 mmHg 20%

    Morgen, 18 Dezember, Montag

    Zeit Temperatur Niederschläge Wind Luftdruck Luftfeuchtigkeit
    00:00 +17°C° 0 mm 3 m/S 717 mmHg 21%
    01:00 +17°C° 0 mm 3 m/S 717 mmHg 22%
    02:00 +16°C° 0 mm 2 m/S 716 mmHg 23%
    03:00 +16°C° 0 mm 2 m/S 716 mmHg 24%
    04:00 +15°C° 0 mm 2 m/S 716 mmHg 25%
    05:00 +15°C° 0 mm 2 m/S 716 mmHg 24%
    06:00 +15°C° 0 mm 2 m/S 716 mmHg 24%
    07:00 +15°C° 0 mm 2 m/S 717 mmHg 24%
    08:00 +18°C° 0 mm 2 m/S 717 mmHg 21%
    09:00 +20°C° 0 mm 2 m/S 718 mmHg 19%
    10:00 +24°C° 0 mm 2 m/S 718 mmHg 16%
    11:00 +25°C° 0 mm 2 m/S 717 mmHg 14%
    12:00 +26°C° 0 mm 2 m/S 717 mmHg 13%
    13:00 +28°C° 0 mm 2 m/S 716 mmHg 12%
    14:00 +27°C° 0 mm 2 m/S 716 mmHg 12%
    15:00 +27°C° 0 mm 2 m/S 715 mmHg 12%
    16:00 +27°C° 0 mm 2 m/S 715 mmHg 12%
    17:00 +25°C° 0 mm 2 m/S 715 mmHg 14%
    18:00 +22°C° 0 mm 3 m/S 715 mmHg 15%
    19:00 +21°C° 0 mm 3 m/S 715 mmHg 17%
    20:00 +20°C° 0 mm 3 m/S 715 mmHg 18%
    21:00 +19°C° 0 mm 3 m/S 715 mmHg 19%
    22:00 +19°C° 0 mm 3 m/S 716 mmHg 20%
    23:00 +18°C° 0 mm 3 m/S 715 mmHg 21%

    übermorgen, 19 Dezember, Dienstag

    Zeit Temperatur Niederschläge Wind Luftdruck Luftfeuchtigkeit
    00:00 +18°C° 0 mm 3 m/S 715 mmHg 22%
    01:00 +17°C° 0 mm 3 m/S 715 mmHg 23%
    02:00 +17°C° 0 mm 3 m/S 715 mmHg 24%
    03:00 +16°C° 0 mm 3 m/S 715 mmHg 24%
    04:00 +16°C° 0 mm 3 m/S 714 mmHg 25%
    05:00 +16°C° 0 mm 3 m/S 715 mmHg 25%
    06:00 +16°C° 0 mm 2 m/S 715 mmHg 25%
    07:00 +16°C° 0 mm 2 m/S 715 mmHg 26%
    08:00 +19°C° 0 mm 2 m/S 716 mmHg 24%
    09:00 +21°C° 0 mm 3 m/S 716 mmHg 22%
    10:00 +25°C° 0 mm 3 m/S 717 mmHg 20%
    11:00 +26°C° 0 mm 3 m/S 716 mmHg 19%
    12:00 +28°C° 0 mm 3 m/S 715 mmHg 17%
    13:00 +29°C° 0 mm 3 m/S 715 mmHg 16%
    14:00 +29°C° 0 mm 3 m/S 714 mmHg 16%
    15:00 +28°C° 0 mm 2 m/S 714 mmHg 16%
    16:00 +28°C° 0 mm 1 m/S 714 mmHg 16%
    17:00 +25°C° 0 mm 1 m/S 714 mmHg 19%
    18:00 +23°C° 0 mm 1 m/S 714 mmHg 22%
    19:00 +21°C° 0 mm 1 m/S 714 mmHg 25%
    20:00 +21°C° 0 mm 1 m/S 714 mmHg 25%
    21:00 +20°C° 0 mm 2 m/S 714 mmHg 25%
    22:00 +20°C° 0 mm 3 m/S 715 mmHg 24%
    23:00 +20°C° 0 mm 3 m/S 715 mmHg 25%

    20 Dezember, Mittwoch

    Zeit Temperatur Niederschläge Wind Luftdruck Luftfeuchtigkeit
    00:00 +20°C° 0 mm 3 m/S 715 mmHg 27%
    01:00 +19°C° 0 mm 3 m/S 714 mmHg 28%
    02:00 +18°C° 0 mm 3 m/S 714 mmHg 29%
    03:00 +18°C° 0 mm 3 m/S 714 mmHg 31%
    04:00 +17°C° 0 mm 3 m/S 714 mmHg 33%
    05:00 +18°C° 0 mm 2 m/S 714 mmHg 33%
    06:00 +18°C° 0 mm 2 m/S 715 mmHg 33%
    07:00 +18°C° 0 mm 2 m/S 715 mmHg 34%
    08:00 +20°C° 0 mm 2 m/S 716 mmHg 30%
    09:00 +24°C° 0 mm 2 m/S 716 mmHg 27%
    10:00 +26°C° 0 mm 3 m/S 716 mmHg 23%
    11:00 +27°C° 0 mm 3 m/S 716 mmHg 21%
    12:00 +29°C° 0 mm 3 m/S 715 mmHg 19%
    13:00 +30°C° 0 mm 3 m/S 715 mmHg 17%
    14:00 +30°C° 0 mm 2 m/S 715 mmHg 17%
    15:00 +29°C° 0 mm 2 m/S 714 mmHg 17%
    16:00 +29°C° 0 mm 2 m/S 714 mmHg 17%
    17:00 +27°C° 0 mm 2 m/S 714 mmHg 19%
    18:00 +26°C° 0 mm 2 m/S 715 mmHg 22%
    19:00 +24°C° 0 mm 2 m/S 715 mmHg 24%
    20:00 +22°C° 0 mm 3 m/S 715 mmHg 25%
    21:00 +22°C° 0 mm 3 m/S 715 mmHg 25%
    22:00 +22°C° 0 mm 3 m/S 716 mmHg 26%
    23:00 +21°C° 0 mm 3 m/S 716 mmHg 27%

    21 Dezember, Donnerstag

    Zeit Temperatur Niederschläge Wind Luftdruck Luftfeuchtigkeit
    00:00 +21°C° 0 mm 3 m/S 715 mmHg 29%
    01:00 +20°C° 0 mm 3 m/S 715 mmHg 30%
    02:00 +20°C° 0 mm 3 m/S 715 mmHg 31%
    03:00 +19°C° 0 mm 3 m/S 715 mmHg 32%
    04:00 +19°C° 0 mm 3 m/S 715 mmHg 34%
    05:00 +19°C° 0 mm 2 m/S 715 mmHg 34%
    06:00 +19°C° 0 mm 2 m/S 716 mmHg 35%
    07:00 +19°C° 0 mm 2 m/S 716 mmHg 36%
    08:00 +21°C° 0 mm 3 m/S 716 mmHg 33%
    09:00 +25°C° 0 mm 3 m/S 717 mmHg 29%
    10:00 +27°C° 0 mm 4 m/S 717 mmHg 26%
    11:00 +28°C° 0 mm 4 m/S 716 mmHg 24%
    12:00 +30°C° 0 mm 4 m/S 716 mmHg 21%
    13:00 +31°C° 0 mm 3 m/S 715 mmHg 19%
    14:00 +31°C° 0 mm 3 m/S 715 mmHg 19%
    15:00 +31°C° 0 mm 2 m/S 715 mmHg 19%
    16:00 +30°C° 0 mm 2 m/S 714 mmHg 18%
    17:00 +28°C° 0 mm 2 m/S 715 mmHg 21%
    18:00 +26°C° 0 mm 1 m/S 715 mmHg 25%
    19:00 +24°C° 0 mm 1 m/S 715 mmHg 28%
    20:00 +24°C° 0 mm 2 m/S 715 mmHg 28%
    21:00 +24°C° 0 mm 2 m/S 715 mmHg 27%
    22:00 +24°C° 0 mm 3 m/S 715 mmHg 27%
    23:00 +24°C° 0 mm 3 m/S 715 mmHg 29%

    22 Dezember, Freitag

    Zeit Temperatur Niederschläge Wind Luftdruck Luftfeuchtigkeit
    00:00 +22°C° 0 mm 3 m/S 715 mmHg 31%
    01:00 +22°C° 0 mm 3 m/S 715 mmHg 32%
    02:00 +21°C° 0 mm 3 m/S 714 mmHg 34%
    03:00 +20°C° 0 mm 2 m/S 714 mmHg 35%
    04:00 +20°C° 0 mm 2 m/S 714 mmHg 37%
    05:00 +20°C° 0 mm 2 m/S 714 mmHg 36%
    06:00 +20°C° 0 mm 2 m/S 715 mmHg 36%
    07:00 +20°C° 0 mm 2 m/S 715 mmHg 35%
    08:00 +23°C° 0 mm 2 m/S 715 mmHg 31%
    09:00 +25°C° 0 mm 3 m/S 716 mmHg 28%
    10:00 +28°C° 0 mm 3 m/S 716 mmHg 24%
    11:00 +29°C° 0 mm 3 m/S 715 mmHg 23%
    12:00 +30°C° 0 mm 3 m/S 715 mmHg 21%
    13:00 +31°C° 0 mm 3 m/S 714 mmHg 20%
    14:00 +31°C° 0 mm 2 m/S 714 mmHg 20%
    15:00 +30°C° 0 mm 2 m/S 714 mmHg 20%
    16:00 +30°C° 0 mm 1 m/S 713 mmHg 21%
    17:00 +28°C° 0 mm 1 m/S 713 mmHg 24%
    18:00 +26°C° 0 mm 1 m/S 713 mmHg 26%
    19:00 +24°C° 0 mm 1 m/S 713 mmHg 29%
    20:00 +24°C° 0 mm 1 m/S 713 mmHg 30%
    21:00 +24°C° 0 mm 2 m/S 714 mmHg 30%
    22:00 +24°C° 0 mm 2 m/S 714 mmHg 30%
    23:00 +24°C° 0 mm 2 m/S 714 mmHg 31%
    Mehr zeigen